Regional Weather Roundup
Issued by NWS Upton, NY

Current Version | Previous Version | Graphics & Text | Print | Product List | Glossary Off
Versions: 1 2 3 4 5 6 7 8 9 10 11 12 13 14 15 16 17 18 19 20 21 22 23 24 25 26 27 28 29 30 31 32 33 34 35 36 37 38 39 40 41 42 43 44 45 46 47 48 49 50

000
ASUS41 KOKX 191708
RWROKX

REGIONAL WEATHER ROUNDUP
NATIONAL WEATHER SERVICE NEW YORK NY
1200 PM EST SUN NOV 19 2017

NOTE: "FAIR" INDICATES FEW OR NO CLOUDS BELOW 12,000 FEET WITH NO
SIGNIFICANT WEATHER AND/OR OBSTRUCTIONS TO VISIBILITY.

NYZ071-072-176-178-NJZ106-104-191800-
NEW YORK CITY METRO AREA

CITY           SKY/WX    TMP DP  RH WIND       PRES   REMARKS
Central Park   CLOUDY    49  30  48 NW15G31   29.51R
Bronx Bot Gard NOT AVBL
LaGuardia APRT PTSUNNY   51  31  46 NW29G40   29.48R
Kennedy INTL   PTSUNNY   52  32  46 W36G47    29.48R
Breezy Point   NOT AVBL
Newark/Liberty PTSUNNY   51  30  44 NW24G40   29.50R
Teterboro      PTSUNNY   49  30  48 NW26G39   29.49R
$$

NYZ177-179-078>081-191800-
LONG ISLAND NEW YORK

CITY           SKY/WX    TMP DP  RH WIND       PRES   REMARKS
Jones Beach    NOT AVBL
Matinecock PT  NOT AVBL
Farmingdale    MOSUNNY   51  31  46 NW22G44   29.45R
MacArthur/ISP  PTSUNNY   52  33  48 W25G41    29.42R
Shirley        SUNNY     52  34  50 W23G43    29.42R
Mt Sinai Harb  NOT AVBL
Westhampton    SUNNY     52  34  50 W21G37    29.38R
East Hampton   FAIR      52  36  55 W21G37    29.34R
Southold       NOT AVBL
Montauk        NOT AVBL
$$

NYZ052-065-067-191800-
HUDSON VALLEY

CITY           SKY/WX    TMP DP  RH WIND       PRES   REMARKS
White Plains   PTSUNNY   46  31  55 NW28G38   29.45R
Larchmont Harb NOT AVBL
Croton On Huds NOT AVBL
Newburgh       PTSUNNY   43  34  70 NW23G40   29.48R
Montgomery     CLOUDY    44  30  57 W14G31    29.48R
Poughkeepsie   PTSUNNY   46  29  51 W18G29    29.45R
Albany         CLOUDY    40  26  57 W32G41    29.45R WCI  28
$$

NJZ001-105-106-008-010-013-015-019>022-104-191800-
NEW JERSEY

CITY           SKY/WX    TMP DP  RH WIND       PRES   REMARKS
Newark/Liberty PTSUNNY   51  30  44 NW24G40   29.50R
Teterboro      PTSUNNY   49  30  48 NW26G39   29.49R
Caldwell       PTSUNNY   48  31  51 NW26G35   29.50R
Somerville     PTSUNNY   52  33  48 W15G24    29.52R
Linden         PTSUNNY   50  31  47 NW23G37   29.51R
Perth Amboy    NOT AVBL
Sussex         CLOUDY    46  30  53 NW14G25   29.51R
Andover        NOT AVBL
Trenton        PTSUNNY   51  31  46 NW23G40   29.55R
Millville      PTSUNNY   55  35  47 NW23G31   29.60R
Atlantic City  SUNNY     55  35  47 NW26G46   29.56R
Wrightstown    PTSUNNY   53  32  45 NW18G32   29.52R
Toms River     PTSUNNY   52  33  48 NW24G32   29.54R
Belmar         PTSUNNY   52  32  46 W22G30    29.52R
$$

PAZ047>061-062-071-191800-
EASTERN PENNSYLVANIA

CITY           SKY/WX    TMP DP  RH WIND       PRES   REMARKS
Philadelphia   PTSUNNY   53  30  41 NW22G41   29.60R
Allentown      CLOUDY    50  30  46 W22G36    29.57R
Scranton       CLOUDY    42  30  62 NW16G26   29.57R
$$

CTZ002-004>006-009-010-012-RIZ004-006-007-MAZ004-011-015-191800-
SOUTHERN NEW ENGLAND
 IN CT

CITY           SKY/WX    TMP DP  RH WIND       PRES   REMARKS
Bradley INTL   PTSUNNY   48  31  51 NW15G37   29.35R
Hartford       PTSUNNY   52  35  52 NW16G24   29.34R
Danbury        MOSUNNY   47  31  53 W25G39    29.42R
Wtrbury/Oxford PTSUNNY   47  32  56 W21G36    29.37R
Norwalk Harbor NOT AVBL
Bridgeport     SUNNY     50  31  48 W26G45    29.39R
Meriden        PTSUNNY   50  34  54 W16G30    29.36R
New Haven      MOSUNNY   51  34  52 W15G25    29.37R
Chester        CLOUDY    52  36  54 W17G29    29.33R
Groton         CLOUDY    54  39  57 W20G37    29.29R
Wilimantic     PTSUNNY   51  34  52 W21G30    29.31R

 IN RI

CITY           SKY/WX    TMP DP  RH WIND       PRES   REMARKS
Providence     CLOUDY    54  46  74 W25G38    29.24R
Block Island   MOSUNNY   54  42  64 W31G45    29.28R
Westerly       CLOUDY    55  44  66 W15G26    29.28R
 IN MA

CITY           SKY/WX    TMP DP  RH WIND       PRES   REMARKS
Boston         LGT RAIN  50  42  74 W30G43    29.17R
Worcester      MOSUNNY   43  32  65 W35G47    29.22R
Westfield      CLOUDY    46  33  60 W15G35    29.34R
Provincetown   PTSUNNY   57  55  93 SW21G29   29.16F
Nantucket      CLOUDY    58  57  97 SW25G37   29.24F
$$

ANZ330-335-338-340-345-350-353-355-191800-
COASTAL MARINE OBSERVATIONS


STATION/POSITION TIME  SKY/WX   TEMP    WIND        PRES    VSBY  WAVE
                                AIR SEA DIR/SP/G                  HT/PER
                 (UTC)          (F)     (DEG/KT/KT) (MB)    (MI)  (FT/S)
NY HARB ENTRANCE 1550            52 58  280/ 31/ 39  995.1          8/ 5
20 S FIRE ISLAND 1550            53 58  280/ 31/ 39  995.0         12/ 9
GREAT SOUTH BAY  1630            49 48  300/ 27/ 33   N/A
HUDSON CANYON    1550            54 60  280/ 31/ 37  996.1         13/ 9
KINGS POINT      1636            49 52  340/ 22/ 29  998.7
EXECUTION ROCKS  1630            50     270/ 21/ 31   N/A
WESTERN LI SOUND 1549            50     290/ 21/ 31   N/A           4/ 3
CENTRAL LI SOUND NOT AVBL
ROBBINS REEF     1648            49     300/ 32/ 39  998.9
$$


>>>>>>>>>>>>>>>>>>>>>>>>>>>> KEY <<<<<<<<<<<<<<<<<<<<<<<<<<<
>                                                          <
>     SKY/WX - Sky Condition/Present Weather               <
>     TMP    - Temperature in Fahrenheit                   <
>     DP     - Dew Point in Fahrenheit                     <
>     RH     - Relative Humidity in Percent                <
>     WIND   - Direction (from) and Speed in MPH           <
>     PRES   - Mean Sea Level Pressure (inches of Hg)      <
>     WCI    - Wind Chill Index                            <
>     VSB    - VISIBILITY IN MILES                         <
>     HX     - HEAT INDEX                                  <
>     TC     - TEMPERATURE IN CELSIUS                      <
>     VRB    - VARIABLE WIND DIRECTION                     <
>                                                          <
>>>>>>>>>>>>>>>>>>>>>>>>>>>> KEY <<<<<<<<<<<<<<<<<<<<<<<<<<<



USA.gov is the U.S. government's official web portal to all federal, state and local government web resources and services.